Simultaneous Nadir Overpasses (SNOs) Predictions

Prediction of SNOs between NOAA-19 and TERRA Satellite Orbit:

Table of predicted SNOs for the next 14.0 days since TLE Epoch: 10/9/2021
Index Date (NOAA-19) Time (NOAA-19) Lat,Lon (NOAA-19) SZA (NOAA-19 ) Date (TERRA) Time (TERRA) Lat,Lon (TERRA) SZA (TERRA ) Distance(km) Time Diff (sec)
1 10/10/2021 07:44:29 80.47, 98.40 89.17 10/10/2021 07:44:45 80.46, 98.40 89.17 0.98 16
2 10/10/2021 08:35:23 -80.46, -94.15 90.81 10/10/2021 08:34:12 -80.46, -93.99 90.83 2.95 71
3 10/12/2021 13:17:30 -80.48,-164.94 89.99 10/12/2021 13:18:26 -80.48,-164.87 89.96 1.17 56
4 10/12/2021 14:08:35 80.47, 2.48 90.04 10/12/2021 14:07:53 80.44, 2.46 90.01 2.59 42
5 10/14/2021 19:41:36 -80.47, 99.19 89.12 10/14/2021 19:41:34 -80.46, 99.17 89.14 1.62 2
6 10/17/2021 01:14:47 80.47,-164.01 91.72 10/17/2021 01:15:14 80.47,-164.16 91.72 2.68 27
7 10/17/2021 02:05:41 -80.45, 3.64 88.24 10/17/2021 02:04:41 -80.47, 3.50 88.27 3.23 60
8 10/19/2021 06:47:49 -80.49, -67.51 87.48 10/19/2021 06:48:55 -80.48, -67.47 87.45 1.13 66
9 10/19/2021 07:38:53 80.48, 99.98 92.56 10/19/2021 07:38:21 80.48, 100.13 92.56 2.69 32



Historial Predications of SNOs between NOAA-19 and TERRA
